Weather History for Seward, AK

Change the Weather History Date:

Sunday, December 15, 2013

  Actual Average Record
Temperature  
Mean Temperature 21 °F -  
Max Temperature 23 °F 31 °F 46 °F (2005)
Min Temperature 18 °F 21 °F -8 °F (1964)
Degree Days  
Heating Degree Days 44    
Moisture  
Dew Point 8 °F    
Average Humidity 59    
Maximum Humidity 66    
Minimum Humidity 55    
Precipitation  
Precipitation 0.00 in - - ()
Sea Level Pressure  
Sea Level Pressure 29.48 in    
Wind  
Wind Speed 19 mph (North)    
Max Wind Speed 24 mph    
Max Gust Speed 39 mph    
Visibility 10 miles    
Events      
Averages and records for this station are not official NWS values.
T = Trace of Precipitation, MM = Missing Value Source: NWS Daily Summary

Daily Weather History Graph

Daily Weather History Graph

Search for Another Location

Airport:

Trip Planner

Search our weather history database for the weather conditions in past years. The results will help you decide how hot, cold, wet, or windy it might be!

Date:

Astronomy

Dec. 15, 2013 Rise Set
Actual Time 9:56 AM AKST 3:49 PM AKST
Civil Twilight 8:58 AM AKST 4:47 PM AKST
Nautical Twilight 8:01 AM AKST 5:44 PM AKST
Astronomical Twilight 7:09 AM AKST 6:36 PM AKST
Moon 3:22 PM AKST (12/15) 7:59 AM AKST (12/15)
Length of Visible Light 7h 48m
Length of Day
5h 52m
Waxing Gibbous, 98% of the Moon is Illuminated
Dec 15
Waxing Gibbous
Dec 17
Full
Dec 25
Last Quarter
Jan 1
New
Jan 7
First Quarter

Hourly Weather History & Observations

Time (AKST) Temp. Windchill Dew Point Humidity Pressure Visibility Wind Dir Wind Speed Gust Speed Precip Events Conditions
12:53 AM 23.0 °F 10.1 °F 12.0 °F 63% 29.08 in 10.0 mi North 15.0 mph 23.0 mph 0.00 in   Overcast
1:53 AM 23.0 °F 8.7 °F 12.0 °F 63% 29.13 in 10.0 mi North 18.4 mph 23.0 mph N/A   Overcast
3:53 AM 21.9 °F 7.8 °F 12.0 °F 66% 29.19 in 10.0 mi NNE 17.3 mph 28.8 mph N/A   Overcast
4:53 AM 23.0 °F 9.2 °F 10.9 °F 60% 29.22 in 10.0 mi North 17.3 mph 24.2 mph N/A   Overcast
5:53 AM 21.0 °F 7.1 °F 10.0 °F 63% 29.25 in 10.0 mi NNE 16.1 mph 26.5 mph N/A   Mostly Cloudy
6:53 AM 21.9 °F 8.2 °F 10.0 °F 60% 29.29 in 10.0 mi North 16.1 mph 28.8 mph N/A   Overcast
7:53 AM 21.9 °F 5.8 °F 9.0 °F 58% 29.32 in 10.0 mi NNW 23.0 mph 34.5 mph 0.00 in   Overcast
8:53 AM 21.0 °F 5.4 °F 7.0 °F 55% 29.35 in 10.0 mi NNW 20.7 mph 33.4 mph N/A   Overcast
9:53 AM 19.9 °F 3.9 °F 7.0 °F 57% 29.40 in 10.0 mi NNW 20.7 mph 36.8 mph N/A   Clear
10:53 AM 21.0 °F 6.2 °F 7.0 °F 55% 29.44 in 10.0 mi NW 18.4 mph 31.1 mph N/A   Overcast
11:53 AM 21.0 °F 5.4 °F 8.1 °F 57% 29.47 in 10.0 mi NNW 20.7 mph 32.2 mph N/A   Overcast
12:53 PM 21.0 °F 7.6 °F 8.1 °F 57% 29.49 in 10.0 mi North 15.0 mph 28.8 mph N/A   Clear
1:53 PM 21.9 °F 5.8 °F 8.1 °F 55% 29.52 in 10.0 mi NNW 23.0 mph 34.5 mph N/A   Partly Cloudy
2:53 PM 21.0 °F 6.6 °F 8.1 °F 57% 29.55 in 10.0 mi North 17.3 mph 33.4 mph N/A   Clear
3:53 PM 19.9 °F 3.9 °F 7.0 °F 57% 29.59 in 10.0 mi NNW 20.7 mph 31.1 mph N/A   Clear
4:53 PM 19.9 °F 4.3 °F 7.0 °F 57% 29.62 in 10.0 mi NNW 19.6 mph 33.4 mph N/A   Clear
5:53 PM 19.9 °F 3.5 °F 7.0 °F 57% 29.65 in 10.0 mi NNW 21.9 mph 33.4 mph N/A   Clear
6:53 PM 19.9 °F 2.8 °F 7.0 °F 57% 29.69 in 10.0 mi NNW 24.2 mph 35.7 mph N/A   Clear
7:53 PM 19.0 °F 2.7 °F 8.1 °F 62% 29.72 in 10.0 mi NNW 20.7 mph 34.5 mph N/A   Clear
8:53 PM 19.0 °F 2.4 °F 7.0 °F 59% 29.75 in 10.0 mi North 21.9 mph 33.4 mph N/A   Clear
9:53 PM 19.0 °F 2.7 °F 8.1 °F 62% 29.78 in 10.0 mi North 20.7 mph 36.8 mph N/A   Clear
10:53 PM 19.0 °F 2.4 °F 6.1 °F 57% 29.81 in 10.0 mi North 21.9 mph 39.1 mph N/A   Clear
11:53 PM 18.0 °F 0.9 °F 6.1 °F 60% 29.84 in 10.0 mi North 21.9 mph 33.4 mph N/A   Clear